Regional Weather Roundup
Issued by NWS

Home | Current Version | Previous Version | Graphics & Text | Print | Product List | Glossary On
Versions: 1 2 3 4 5 6 7 8 9 10 11 12 13 14 15 16 17 18 19 20 21 22 23 24 25 26 27 28 29 30 31 32 33 34 35 36 37 38 39 40 41 42 43 44 45 46 47 48 49 50
873
ASUS44 KJAN 261910
RWRMS

MISSISSIPPI HOURLY WEATHER ROUNDUP
NATIONAL WEATHER SERVICE JACKSON MS
200 PM CDT TUE AUG 26 2014

NOTE: "FAIR: INDICATES FEW OR NO CLOUDS BELOW 12,000 FEET WITH NO
SIGNIFICANT WEATHER AND/OR OBSTRUCTIONS TO VISIBILITY.

MSZ001>002-007>008-010>013-018>021-025>028-034>036-262000-
NORTHWEST MISSISSIPPI

CITY           SKY/WX    TMP DP  RH WIND       PRES   REMARKS
CLARKSDALE     FAIR      90  70  51 E6        30.08F HX  95
CLEVELAND      FAIR      89  68  50 NE8       30.06F HX  93
GREENWOOD      SUNNY     89  62  40 NE7       30.07F
GREENVILLE     SUNNY     91  67  44 NE5       30.05F HX  94
GRENADA        FAIR      88  55  33 E8        30.09F
OLIVE BRANCH   PTSUNNY   84  73  70 CALM      30.10F HX  91
OXFORD         FAIR      86  61  42 CALM      30.12F
TUNICA         PTCLDY    88  68  51 E3        30.09F HX  91
$$

MSZ003>006-009-014>017-022>024-029>033-037>039-262000-
NORTHEAST MISSISSIPPI

CITY           SKY/WX    TMP DP  RH WIND       PRES   REMARKS
BELMONT        CLOUDY    80  60  50 W3        30.12F
COLUMBUS AFB   SUNNY     88  59  36 SE6       30.08F
CORINTH        FAIR      86  66  51 CALM      30.10F
GOLDN TRIANGLE SUNNY     90  59  35 SE7       30.08F
STARKVILLE     FAIR      88  55  33 SE3       30.07F
TUPELO         PTSUNNY   84  58  40 CALM      30.11S
$$

MSZ040-058-262000-
CENTRAL MISSISSIPPI

CITY           SKY/WX    TMP DP  RH WIND       PRES   REMARKS
JACKSON INTL   MOSUNNY   90  59  35 VRB5      30.05F
JACKSON HAWKNS SUNNY     89  60  37 VRB6G16   30.05F
MERIDIAN KEY   SUNNY     89  57  33 NE9G18    30.05F
MERIDIAN NAS   MOSUNNY   90  59  35 E8        30.05F
RAYMOND        FAIR      90  84  84 E9        30.04F HX 115
VICKSBURG      SUNNY     92  64  39 NE13      30.04F HX  93
$$

MSZ059>079-262000-
SOUTH MISSISSIPPI

CITY           SKY/WX    TMP DP  RH WIND       PRES   REMARKS
BROOKHAVEN     MOCLDY    86  64  48 N7        30.05F
COLUMBIA       FAIR      88  66  48 MISG      30.00F HX  90
HATTIESBURG    SUNNY     91  61  36 NE9       30.01F HX  91
MCCOMB         MOSUNNY   88  62  41 NE8G16    30.02F
NATCHEZ        MOSUNNY   88  68  51 NE10G20   30.03F HX  91
PINE BELT      SUNNY     91  61  35 NE12      30.04F HX  91
$$

MSZ080>082-262000-
COASTAL MISSISSIPPI

CITY           SKY/WX    TMP DP  RH WIND       PRES   REMARKS
BAY ST LOUIS   MOSUNNY  N/A N/A N/A E7        29.99F
BILOXI         MOSUNNY   88  70  54 S12       29.99F HX  93
PASCAGOULA     MOSUNNY   90  67  46 E9        29.99F HX  93
GULFPORT       MOSUNNY   87  72  60 E10       29.98F HX  93
$$



USA.gov is the U.S. government's official web portal to all federal, state and local government web resources and services.